• In Austria
  • List of Countries
  • For 7 days
  • Water Temperature
  • Satellite Maps
  • Weather Map
  • News
  • Weather Widgets
  • user-avatar
    Login

    Hourly Weather Livingstone

    Today, 18 December, Monday

    Time Temperature Precipitation Wind Pressure Humidity
    00:00 +26°C° 0 mm 1 mps 682 mmHg 51%
    01:00 +26°C° 0 mm 1 mps 681 mmHg 52%
    02:00 +25°C° 0 mm 1 mps 681 mmHg 52%
    03:00 +25°C° 0 mm 1 mps 681 mmHg 54%
    04:00 +24°C° 0 mm 1 mps 681 mmHg 55%
    05:00 +24°C° 0 mm 1 mps 681 mmHg 56%
    06:00 +26°C° 0 mm 1 mps 682 mmHg 52%
    07:00 +27°C° 0 mm 2 mps 683 mmHg 49%
    08:00 +30°C° 0 mm 2 mps 683 mmHg 41%
    09:00 +32°C° 0 mm 2 mps 683 mmHg 36%
    10:00 +35°C° 0 mm 2 mps 683 mmHg 31%
    11:00 +37°C° 0 mm 2 mps 683 mmHg 27%
    12:00 +37°C° 0 mm 2 mps 683 mmHg 27%
    13:00 +37°C° 0 mm 2 mps 682 mmHg 27%
    14:00 +36°C° 0 mm 2 mps 681 mmHg 27%
    15:00 +36°C° 0 mm 2 mps 681 mmHg 27%
    16:00 +36°C° 0 mm 2 mps 681 mmHg 28%
    17:00 +36°C° 0 mm 2 mps 680 mmHg 29%
    18:00 +33°C° 0 mm 1 mps 680 mmHg 33%
    19:00 +31°C° 0 mm 1 mps 680 mmHg 37%
    20:00 +30°C° 0 mm 1 mps 680 mmHg 40%
    21:00 +29°C° 0 mm 1 mps 680 mmHg 43%
    22:00 +28°C° 0 mm 1 mps 681 mmHg 46%
    23:00 +28°C° 0 mm 2 mps 681 mmHg 49%

    Tomorrow, 19 December, Tuesday

    Time Temperature Precipitation Wind Pressure Humidity
    00:00 +27°C° 0 mm 1 mps 680 mmHg 51%
    01:00 +26°C° 0 mm 1 mps 680 mmHg 53%
    02:00 +26°C° 0 mm 1 mps 679 mmHg 55%
    03:00 +25°C° 0 mm 1 mps 679 mmHg 56%
    04:00 +25°C° 0 mm 1 mps 680 mmHg 57%
    05:00 +25°C° 0 mm 1 mps 680 mmHg 57%
    06:00 +27°C° 0 mm 1 mps 680 mmHg 52%
    07:00 +29°C° 0 mm 2 mps 681 mmHg 47%
    08:00 +30°C° 0 mm 2 mps 682 mmHg 42%
    09:00 +32°C° 0 mm 2 mps 682 mmHg 38%
    10:00 +35°C° 0 mm 3 mps 682 mmHg 33%
    11:00 +37°C° 0 mm 3 mps 682 mmHg 29%
    12:00 +38°C° 0 mm 3 mps 682 mmHg 27%
    13:00 +38°C° 0 mm 3 mps 681 mmHg 26%
    14:00 +38°C° 0 mm 3 mps 681 mmHg 25%
    15:00 +38°C° 0 mm 2 mps 680 mmHg 25%
    16:00 +37°C° 0 mm 2 mps 680 mmHg 26%
    17:00 +37°C° 0 mm 2 mps 680 mmHg 27%
    18:00 +35°C° 0 mm 2 mps 680 mmHg 31%
    19:00 +32°C° 0 mm 2 mps 680 mmHg 34%
    20:00 +30°C° 0 mm 2 mps 680 mmHg 38%
    21:00 +30°C° 0 mm 2 mps 680 mmHg 41%
    22:00 +29°C° 0 mm 1 mps 681 mmHg 43%
    23:00 +29°C° 0 mm 1 mps 681 mmHg 45%

    Day after tomorrow, 20 December, Wednesday

    Time Temperature Precipitation Wind Pressure Humidity
    00:00 +28°C° 0 mm 1 mps 681 mmHg 46%
    01:00 +27°C° 0 mm 1 mps 680 mmHg 48%
    02:00 +27°C° 0 mm 1 mps 680 mmHg 50%
    03:00 +26°C° 0 mm 1 mps 680 mmHg 51%
    04:00 +26°C° 0 mm 1 mps 680 mmHg 53%
    05:00 +26°C° 0 mm 1 mps 680 mmHg 54%
    06:00 +27°C° 0 mm 1 mps 681 mmHg 52%
    07:00 +28°C° 0 mm 2 mps 682 mmHg 49%
    08:00 +30°C° 0 mm 2 mps 682 mmHg 47%
    09:00 +32°C° 0.2 mm 2 mps 683 mmHg 42%
    10:00 +35°C° 0.2 mm 2 mps 683 mmHg 38%
    11:00 +37°C° 0.2 mm 2 mps 683 mmHg 34%
    12:00 +37°C° 0 mm 2 mps 682 mmHg 33%
    13:00 +37°C° 0 mm 2 mps 681 mmHg 32%
    14:00 +37°C° 0 mm 2 mps 681 mmHg 32%
    15:00 +37°C° 0 mm 2 mps 680 mmHg 32%
    16:00 +36°C° 0 mm 2 mps 680 mmHg 32%
    17:00 +36°C° 0 mm 2 mps 680 mmHg 32%
    18:00 +35°C° 0.1 mm 2 mps 680 mmHg 38%
    19:00 +32°C° 0.1 mm 2 mps 680 mmHg 43%
    20:00 +30°C° 0.1 mm 2 mps 680 mmHg 49%
    21:00 +28°C° 0.7 mm 2 mps 681 mmHg 55%
    22:00 +27°C° 0.7 mm 2 mps 681 mmHg 62%
    23:00 +26°C° 0.7 mm 1 mps 682 mmHg 69%

    21 December, Thursday

    Time Temperature Precipitation Wind Pressure Humidity
    00:00 +26°C° 1.4 mm 1 mps 682 mmHg 73%
    01:00 +25°C° 1.4 mm 2 mps 681 mmHg 76%
    02:00 +25°C° 1.4 mm 2 mps 681 mmHg 80%
    03:00 +24°C° 0.4 mm 2 mps 681 mmHg 82%
    04:00 +24°C° 0.4 mm 1 mps 681 mmHg 83%
    05:00 +24°C° 0.4 mm 1 mps 681 mmHg 84%
    06:00 +24°C° 0.6 mm 1 mps 682 mmHg 83%
    07:00 +25°C° 0.6 mm 1 mps 683 mmHg 81%
    08:00 +25°C° 0.6 mm 1 mps 683 mmHg 79%
    09:00 +26°C° 1.6 mm 1 mps 683 mmHg 77%
    10:00 +26°C° 1.6 mm 2 mps 683 mmHg 75%
    11:00 +27°C° 1.6 mm 2 mps 683 mmHg 72%
    12:00 +28°C° 0.5 mm 2 mps 683 mmHg 67%
    13:00 +29°C° 0.5 mm 1 mps 682 mmHg 63%
    14:00 +30°C° 0.5 mm 1 mps 682 mmHg 58%
    15:00 +30°C° 0 mm 1 mps 681 mmHg 56%
    16:00 +30°C° 0 mm 1 mps 681 mmHg 55%
    17:00 +28°C° 0 mm 0 mps 681 mmHg 53%
    18:00 +27°C° 0.4 mm 0 mps 681 mmHg 59%
    19:00 +28°C° 0.4 mm 1 mps 681 mmHg 65%
    20:00 +26°C° 0.4 mm 1 mps 681 mmHg 70%
    21:00 +26°C° 0.2 mm 1 mps 682 mmHg 72%
    22:00 +26°C° 0.2 mm 1 mps 682 mmHg 74%
    23:00 +25°C° 0.2 mm 1 mps 682 mmHg 75%

    22 December, Friday

    Time Temperature Precipitation Wind Pressure Humidity
    00:00 +25°C° 0.2 mm 1 mps 682 mmHg 78%
    01:00 +24°C° 0.2 mm 2 mps 681 mmHg 80%
    02:00 +24°C° 0.2 mm 2 mps 681 mmHg 83%
    03:00 +23°C° 0.1 mm 2 mps 681 mmHg 84%
    04:00 +23°C° 0.1 mm 2 mps 681 mmHg 86%
    05:00 +23°C° 0.1 mm 2 mps 681 mmHg 88%
    06:00 +24°C° 0 mm 2 mps 681 mmHg 83%
    07:00 +25°C° 0 mm 2 mps 682 mmHg 78%
    08:00 +26°C° 0 mm 3 mps 683 mmHg 72%
    09:00 +28°C° 0 mm 3 mps 683 mmHg 64%
    10:00 +30°C° 0 mm 3 mps 683 mmHg 56%
    11:00 +33°C° 0 mm 3 mps 683 mmHg 48%
    12:00 +33°C° 0 mm 3 mps 682 mmHg 46%
    13:00 +33°C° 0 mm 3 mps 681 mmHg 45%
    14:00 +34°C° 0 mm 2 mps 681 mmHg 43%
    15:00 +34°C° 0 mm 2 mps 680 mmHg 44%
    16:00 +32°C° 0 mm 2 mps 680 mmHg 44%
    17:00 +32°C° 0 mm 1 mps 680 mmHg 45%
    18:00 +31°C° 0 mm 1 mps 680 mmHg 49%
    19:00 +29°C° 0 mm 1 mps 680 mmHg 53%
    20:00 +28°C° 0 mm 1 mps 680 mmHg 57%
    21:00 +27°C° 0 mm 1 mps 680 mmHg 59%
    22:00 +27°C° 0 mm 1 mps 680 mmHg 62%
    23:00 +26°C° 0 mm 1 mps 680 mmHg 64%

    23 December, Saturday

    Time Temperature Precipitation Wind Pressure Humidity
    00:00 +26°C° 0 mm 2 mps 680 mmHg 67%
    01:00 +25°C° 0 mm 2 mps 679 mmHg 69%
    02:00 +25°C° 0 mm 2 mps 679 mmHg 72%
    03:00 +24°C° 0.3 mm 2 mps 679 mmHg 75%
    04:00 +24°C° 0.3 mm 2 mps 679 mmHg 79%
    05:00 +23°C° 0.3 mm 2 mps 679 mmHg 82%
    06:00 +25°C° 0.1 mm 2 mps 680 mmHg 77%
    07:00 +26°C° 0.1 mm 3 mps 680 mmHg 72%
    08:00 +27°C° 0.1 mm 4 mps 681 mmHg 67%
    09:00 +29°C° 1 mm 3 mps 681 mmHg 62%
    10:00 +31°C° 1 mm 3 mps 680 mmHg 56%
    11:00 +33°C° 1 mm 3 mps 680 mmHg 50%
    12:00 +34°C° 0.2 mm 3 mps 680 mmHg 47%
    13:00 +35°C° 0.2 mm 3 mps 680 mmHg 43%
    14:00 +35°C° 0.2 mm 2 mps 679 mmHg 40%
    15:00 +35°C° 0 mm 2 mps 679 mmHg 41%
    16:00 +35°C° 0 mm 2 mps 679 mmHg 42%
    17:00 +34°C° 0 mm 2 mps 678 mmHg 44%
    18:00 +31°C° 0.1 mm 1 mps 679 mmHg 50%
    19:00 +30°C° 0.1 mm 1 mps 679 mmHg 56%
    20:00 +28°C° 0.1 mm 1 mps 679 mmHg 62%
    21:00 +27°C° 1.1 mm 1 mps 679 mmHg 68%
    22:00 +27°C° 1.1 mm 1 mps 679 mmHg 74%
    23:00 +26°C° 1.1 mm 1 mps 679 mmHg 79%
    Show more